Location: Gloden
(48.4833°N, 15.3167°E)
Time: 12:52:23
(UTC+00:00)

Cosmos 1733 Rocket - Pass Details

Date: 15 December 2019
Orbit: 604 x 627 km, 82.5° (Epoch: 16 January)

Event Time Altitude Azimuth Distance (km) Brightness Sun altitude
Rises 05:47:46 0° 227° (SW) 2,851 6.2 -8.8°
Reaches altitude 10° 05:50:27 10° 244° (WSW) 1,953 5.3 -8.4°
Maximum altitude 05:53:41 20° 292° (WNW) 1,408 4.3 -7.9°
Drops below altitude 10° 05:56:56 10° 341° (NNW) 1,970 5.2 -7.4°
Sets 05:59:41 0° 358° (N) 2,882 6.2 -7.0°
